ATLAS D DEB, 2327

Orbit data source: Space-Track

ATLAS D DEB, 2327 is space debris in LEO originally from a launch on Thu, 14 Jul 1966 UTC launched from the Air Force Western Test Range (AFWTR). Debris objects in space refer to the collection of defunct objects orbiting the Earth. Examples of debris include non-operational satellites, rocket bodies, and fragments generated from explosions, collisions, or faulty payload assembly.

Loading next visibility...
Identifier
2327, 1966-063B
Orbit
LEO
Country
Flag of USUS
Related business
Manufacturer
Goodyear
Mission
Spacecraft
Bus & Motor
CONTAINER, Unknown motor
Mass
2 kg wet, 2 kg dry
Launch date (UTC)
1966-07-14 (60 years ago)
Launch vehicle
Unknown
Launch site
Air Force Western Test Range (AFWTR)
Object type
Payload
Rocket body
Debris
Shape & HBR
HALF CYL, 1.1 m
Radar Cross Section
Medium (>0.1 m² and <1 m²)

Expand to show TLE details & history
Last TLE update: 15 hours ago

TLE from 15 hours ago
0 ATLAS D DEB
1 02327U 66063B   26264.64458872  .00001190  00000-0  55225-3 0  9992
2 02327 144.1948  63.2981 0031328 144.1693 216.1102 14.05819585 51668
Epoch: 2026-09-21T15:28Z
TLE epoch observation values (Epoch: 2026-09-21T15:28:12.465Z)
Latitude
-0.00004°
Longitude
-169.27523°
Altitude
891.131 km
Speed
7.399 km/s
True Right ascension
04h 13m 11s
True Declination
0° 00' 00"
Sunlit
Object was in daylight at epoch
Visualization orbit readout
Latitude
Unknown
Longitude
Unknown
Altitude
Unknown
Speed
Unknown
Apparent Right ascension
Unknown
Apparent Declination
Unknown
Sunlit
N/A
Visualization observer readout
Local Sidereal Time
23:24:40
Azimuth
Unknown
Elevation
Unknown
Doppler factor
Unknown
Orbital elements
Apogee altitude
899.401 km
Perigee altitude
853.945 km
Semi-major axis
7,254.81 km
Eccentricity
0.00313
Inclination
144.1948°
RAAN
63.2981°
Arg. of periapsis
144.1693°
True anomaly
215.8993°
Mean anomaly
216.1102°
Eccentric anomaly
216.00468°
Mean motion
3.5124 °/min
Orbital period
102.49 mins
BSTAR
0.00055225
Loading maneuver chart data...
Computing Atmospheric mass density...
Loading historical data...
Loading historical data...
Loading historical data...
Loading historical data...
Loading historical data...
Loading historical data...
Loading historical data...

Documentation

Showing up to 5 results
|